Overview Statistics Trail Chart Weather Telemetry Raw packets
 

This is the latest recevied weather packets stored in our database for station/object GBTWP-2. If no packets are shown the sender has not sent any weather packets the latest 10 day(s).

<< 89 90 91 92 93 94 95 >>
Time Temp. Humidity Pressure Rain* Wind** Luminosity Snow
1788022020 26.67° C 44% 1024.3 hPa 0 mm - 557 W/m² -
1788021720 26.11° C 46% 1024.4 hPa 0 mm - 603 W/m² -
1788021420 26.11° C 47% 1024.5 hPa 0 mm - 582 W/m² -
1788021120 26.11° C 46% 1024.7 hPa 0 mm - 522 W/m² -
1788020820 26.11° C 45% 1024.5 hPa 0 mm - 508 W/m² -
1788020520 25.56° C 48% 1024.6 hPa 0 mm - 465 W/m² -
1788020220 25.56° C 46% 1024.6 hPa 0 mm - 391 W/m² -
1788019920 25.56° C 47% 1024.7 hPa 0 mm - 449 W/m² -
1788019618 25.56° C 47% 1024.8 hPa 0 mm - 522 W/m² -
1788019320 25.56° C 47% 1024.9 hPa 0 mm - 545 W/m² -
1788018717 26.11° C 50% 1024.8 hPa 0 mm - 273 W/m² -
1788018417 24.44° C 52% 1024.9 hPa 0 mm - 371 W/m² -
1788018119 24.44° C 52% 1024.9 hPa 0 mm - 181 W/m² -
1788017820 24.44° C 53% 1025.2 hPa 0 mm - 533 W/m² -
1788017519 23.89° C 53% 1025.2 hPa 0 mm - 186 W/m² -
1788017220 25° C 52% 1025.2 hPa 0 mm - 169 W/m² -
1788016920 24.44° C 52% 1025.2 hPa 0 mm - 344 W/m² -
1788016617 24.44° C 52% 1025.3 hPa 0 mm - 482 W/m² -
1788016318 23.89° C 55% 1025.4 hPa 0 mm - 458 W/m² -
1788016021 23.33° C 55% 1025.3 hPa 0 mm - 463 W/m² -
1788015718 23.33° C 56% 1025.4 hPa 0 mm - 190 W/m² -
1788015419 22.78° C 55% 1025.2 hPa 0 mm - 472 W/m² -
1788015120 22.78° C 55% 1025.2 hPa 0 mm - 164 W/m² -
1788014825 22.78° C 54% 1025.1 hPa 0 mm - 120 W/m² -
1788014520 22.78° C 54% 1025 hPa 0 mm - 250 W/m² -

* Rain latest hour (hover to see other rain measurements)
** Current wind speed in m/s (hover to see current wind gust speed)